[[{"header":{"parameterUnit":"m.s-1","parameterCategory":1,"la1":30.2991,"la2":30.254,"lo1":-89.0895,"lo2":-89.0444,"dy":0.0017,"dx":0.0017,"nx":28,"ny":28,"refTime":"2024-04-14T09:00:00:Z","depth":0,"parameterNumber":2,"parameterNumberName":"U-component_of_WINDS"},"data":[0,0,0,0,0,0,0,0,0,0,0,0,0,0,0,0,0,0,0,0,0,0,0,0,0,0,0,0,0,0,0,0,0,0,0,0,0,0,0,0,0,0,0,0,0,0,0,0,0,0,0,0,0,0,0,0,0,0,-0.108,-0.1081,0,-0.1147,-0.1148,-0.1149,-0.1215,-0.1216,-0.1217,-0.1218,-0.1289,-0.129,-0.1291,0,0,0,0,0,0,0,0,0,0,0,0,0,-0.1013,-0.1014,-0.108,-0.1081,-0.1082,-0.1147,-0.1148,-0.1149,-0.1215,-0.1216,-0.1217,-0.1218,-0.1289,-0.129,-0.1291,0,0,0,0,0,0,0,0,0,0,0,0,0,-0.1057,-0.1014,-0.108,-0.1123,-0.1127,-0.1147,-0.1148,-0.1149,-0.1215,-0.1216,-0.1218,-0.1219,-0.1288,-0.129,-0.1292,-0.1275,0,0,-0.1297,-0.1297,0,0,0,0,0,0,0,0,-0.1055,-0.106,-0.1116,-0.112,-0.1125,-0.1174,-0.1151,-0.1192,-0.1215,-0.1182,-0.1218,-0.1219,-0.125,-0.1255,-0.1265,-0.1279,-0.1282,-0.1297,-0.1298,-0.1298,-0.1299,0,0,0,0,0,0,0,-0.1051,-0.1057,-0.1107,-0.1116,-0.1122,-0.114,-0.1147,-0.1159,-0.1208,-0.1185,-0.119,-0.1197,-0.1253,-0.1263,-0.1267,-0.1283,-0.1297,-0.1298,-0.1299,-0.13,-0.1288,-0.1287,0,0,0,0,0,0,-0.1041,-0.1054,-0.1105,-0.1109,-0.1092,-0.114,-0.1148,-0.1157,-0.1208,-0.1217,-0.1195,-0.1199,-0.126,-0.1265,-0.127,-0.1254,-0.1298,-0.13,-0.1301,-0.1289,-0.1288,-0.1286,0,0,0,0,0,0,-0.104,-0.1045,-0.1102,-0.1083,-0.1091,-0.1139,-0.1149,-0.1158,-0.1168,-0.1216,-0.1225,-0.1196,-0.1261,-0.1267,-0.1273,-0.1257,-0.1301,-0.1302,-0.1291,-0.1289,-0.1287,-0.1222,0,0,0,0,0,0,-0.1038,-0.1044,-0.1038,-0.1082,-0.1092,-0.1103,-0.1148,-0.1158,-0.117,-0.1176,-0.1219,-0.1228,-0.1262,-0.1271,-0.1275,-0.126,-0.1303,-0.1292,-0.129,-0.1288,-0.1226,-0.1218,-0.1212,0,0,0,0,0,-0.1035,-0.1017,-0.1037,-0.1043,-0.1085,-0.1102,-0.1108,-0.1147,-0.1168,-0.1163,-0.1194,-0.1226,-0.1259,-0.1271,-0.1276,-0.1262,-0.1294,-0.1291,-0.1288,-0.1229,-0.122,-0.1212,0,0,0,0,0,0,-0.097,-0.1024,-0.1046,-0.1042,-0.1067,-0.1113,-0.1107,-0.1136,-0.1156,-0.1161,-0.121,-0.1219,-0.122,-0.1242,-0.1254,-0.1249,-0.1281,-0.1279,-0.1234,-0.1226,-0.1219,-0.1213,-0.1305,0,0,0,0,0,-0.0955,-0.0964,-0.1011,-0.1003,-0.1014,-0.1058,-0.1068,-0.1096,-0.1124,-0.1135,-0.1166,-0.1193,-0.121,-0.1219,-0.1237,-0.123,-0.1241,-0.1223,-0.1216,-0.121,-0.1207,-0.1206,-0.1199,-0.1277,-0.1277,-0.1277,0,0,-0.0925,-0.0956,-0.0958,-0.0991,-0.1013,-0.1022,-0.1067,-0.1074,-0.1082,-0.1136,-0.1143,-0.1168,-0.1201,-0.1201,-0.1202,-0.1219,-0.1188,-0.1206,-0.1201,-0.1202,-0.1202,-0.1195,-0.1188,-0.1275,-0.1275,-0.1275,0,0,-0.0874,-0.0898,-0.0894,-0.0915,-0.0949,-0.0978,-0.0977,-0.102,-0.1037,-0.1045,-0.1087,-0.1097,-0.1124,-0.1146,-0.1161,-0.1119,-0.115,-0.1124,-0.1086,-0.1084,-0.1078,-0.1073,-0.1058,-0.1052,-0.1122,-0.1122,-0.1121,0,-0.0832,-0.0846,-0.0888,-0.0893,-0.0906,-0.0956,-0.0953,-0.0972,-0.101,-0.1019,-0.1037,-0.1072,-0.1099,-0.1104,-0.1094,-0.1104,-0.1105,-0.1119,-0.1075,-0.1071,-0.1066,-0.1053,-0.1047,-0.1118,-0.1118,-0.1119,-0.1119,0,-0.0793,-0.0802,-0.0795,-0.0829,-0.0842,-0.0843,-0.0886,-0.0895,-0.0922,-0.095,-0.0958,-0.0991,-0.1017,-0.1021,-0.1048,-0.103,-0.104,-0.1066,-0.1099,-0.1055,-0.1043,-0.1038,-0.1113,-0.1114,-0.1115,-0.1116,0,0,-0.0701,-0.0759,-0.0756,-0.0772,-0.0813,-0.0822,-0.0826,-0.085,-0.0856,-0.0881,-0.0885,-0.0908,-0.0933,-0.0949,-0.098,-0.0978,-0.0943,-0.1005,-0.1007,-0.0992,-0.0926,-0.0904,-0.0897,-0.0964,-0.0963,-0.0963,-0.0923,0,-0.0657,-0.0665,-0.0703,-0.0701,-0.071,-0.0758,-0.0762,-0.0788,-0.0814,-0.0827,-0.0858,-0.0872,-0.0904,-0.0914,-0.0915,-0.0947,-0.093,-0.0951,-0.0969,-0.0969,-0.0958,-0.0891,-0.0869,-0.0829,-0.0918,-0.0917,-0.0917,0,-0.0605,-0.0626,-0.0623,-0.0665,-0.067,-0.0672,-0.0698,-0.0709,-0.074,-0.076,-0.0779,-0.0813,-0.0821,-0.0852,-0.0864,-0.0877,-0.0887,-0.0904,-0.0904,-0.0906,-0.0939,-0.0891,-0.0818,-0.0811,-0.091,-0.091,-0.0911,0,-0.0538,-0.0566,-0.0568,-0.0581,-0.0629,-0.0629,-0.065,-0.0682,-0.0694,-0.0717,-0.0726,-0.075,-0.0762,-0.0781,-0.0821,-0.084,-0.0828,-0.0863,-0.0845,-0.0844,-0.0839,-0.0839,-0.0765,-0.0848,-0.0848,-0.0848,-0.0848,0,-0.0484,-0.048,-0.0538,-0.0539,-0.0537,-0.0583,-0.058,-0.0605,-0.0634,-0.0642,-0.0686,-0.0692,-0.0746,-0.0759,-0.0791,-0.0795,-0.0801,-0.0818,-0.0826,-0.0813,-0.0811,-0.082,-0.0823,-0.0846,-0.0847,-0.0847,-0.0847,0,-0.0408,-0.0446,-0.0452,-0.0497,-0.0509,-0.0505,-0.0545,-0.0548,-0.0578,-0.0587,-0.0592,-0.0639,-0.0657,-0.0699,-0.0729,-0.075,-0.0747,-0.0763,-0.0735,-0.0741,-0.072,-0.0721,-0.0649,-0.0642,-0.0729,-0.0728,-0.0727,0,-0.037,-0.0368,-0.0413,-0.0421,-0.0439,-0.0451,-0.0464,-0.0509,-0.0521,-0.0557,-0.0556,-0.0577,-0.0596,-0.0623,-0.066,-0.0683,-0.0699,-0.0673,-0.0703,-0.069,-0.0698,-0.0697,-0.0697,-0.0665,-0.0664,-0.0663,-0.0662,0,-0.0298,-0.0318,-0.0333,-0.0356,-0.0369,-0.0389,-0.0412,-0.0416,-0.0468,-0.0478,-0.0496,-0.0511,-0.0541,-0.0562,-0.059,-0.0613,-0.0646,-0.0653,-0.065,-0.0636,-0.062,-0.0628,-0.0716,-0.0654,-0.0655,-0.0655,-0.0656,-0.0656,-0.024,-0.0241,-0.0272,-0.0288,-0.031,-0.0331,-0.0336,-0.0366,-0.0382,-0.0409,-0.0435,-0.0451,-0.0483,-0.0525,-0.0546,-0.0559,-0.0576,-0.0572,-0.0571,-0.0569,-0.0563,-0.0618,-0.0565,-0.0565,-0.0566,-0.0566,-0.0566,0,-0.017,-0.0193,-0.0207,-0.0237,-0.025,-0.028,-0.0307,-0.0316,-0.0329,-0.0356,-0.0374,-0.0395,-0.0415,-0.0454,-0.0479,-0.0482,-0.0498,-0.0487,-0.0486,-0.0491,-0.0547,-0.0546,-0.0473,-0.0473,-0.0473,-0.0473,-0.0473,-0.0473,-0.0135,-0.0138,-0.0161,-0.0175,-0.0199,-0.0213,-0.0226,-0.0246,-0.0267,-0.0288,-0.0305,-0.0331,-0.0363,-0.039,-0.041,-0.0422,-0.0428,-0.0412,-0.0428,-0.0479,-0.0487,-0.0495,-0.0495,-0.0413,-0.0413,-0.0371,-0.0371,-0.037]},{"header":{"parameterUnit":"m.s-1","parameterCategory":1,"la1":30.2991,"la2":30.254,"lo1":-89.0895,"lo2":-89.0444,"dy":0.0017,"dx":0.0017,"nx":28,"ny":28,"refTime":"2024-04-14T09:00:00:Z","depth":0,"parameterNumber":3,"parameterNumberName":"V-component_of_WINDS"},"data":[0,0,0,0,0,0,0,0,0,0,0,0,0,0,0,0,0,0,0,0,0,0,0,0,0,0,0,0,0,0,0,0,0,0,0,0,0,0,0,0,0,0,0,0,0,0,0,0,0,0,0,0,0,0,0,0,0,0,3.6089,3.6089,0,3.6057,3.6057,3.6057,3.5957,3.5955,3.5953,3.595,3.592,3.5921,3.5922,0,0,0,0,0,0,0,0,0,0,0,0,0,3.6064,3.6065,3.6089,3.6089,3.6088,3.6057,3.6057,3.6056,3.5957,3.5955,3.5952,3.5949,3.5919,3.5921,3.5922,0,0,0,0,0,0,0,0,0,0,0,0,0,3.6058,3.6066,3.6089,3.6035,3.603,3.6057,3.6057,3.6056,3.5958,3.5955,3.5951,3.5948,3.5919,3.5921,3.5923,3.6,0,0,3.5928,3.5929,0,0,0,0,0,0,0,0,3.6059,3.6059,3.6043,3.6039,3.6033,3.6008,3.6037,3.6038,3.5959,3.5985,3.595,3.5947,3.5952,3.5951,3.5952,3.5999,3.5998,3.5928,3.5929,3.593,3.5931,0,0,0,0,0,0,0,3.6059,3.606,3.6076,3.6043,3.6037,3.6012,3.6008,3.6037,3.5988,3.5983,3.5975,3.5973,3.5948,3.5951,3.5951,3.5997,3.5928,3.593,3.5931,3.5932,3.6105,3.6108,0,0,0,0,0,0,3.6067,3.6061,3.6077,3.6075,3.6038,3.6016,3.6011,3.6019,3.5987,3.5979,3.5976,3.5968,3.5949,3.5949,3.5949,3.6038,3.593,3.5932,3.5933,3.6102,3.6106,3.611,0,0,0,0,0,0,3.6067,3.607,3.6079,3.6066,3.6066,3.602,3.603,3.602,3.6022,3.5982,3.5973,3.5987,3.5946,3.5947,3.5988,3.6035,3.5933,3.5935,3.6098,3.6103,3.6108,3.6216,0,0,0,0,0,0,3.6067,3.607,3.6099,3.6068,3.6067,3.6118,3.6033,3.6022,3.6026,3.6016,3.599,3.5982,3.5944,3.5986,3.599,3.6036,3.5936,3.6093,3.61,3.6106,3.6208,3.6224,3.6238,0,0,0,0,0,3.6066,3.6132,3.6101,3.6104,3.6102,3.6121,3.6121,3.6074,3.603,3.6059,3.6032,3.5983,3.6029,3.5991,3.5995,3.6042,3.609,3.6098,3.6106,3.6201,3.6221,3.6238,0,0,0,0,0,0,3.6171,3.6127,3.6093,3.615,3.614,3.6104,3.614,3.6097,3.61,3.6091,3.6034,3.6029,3.6078,3.6064,3.6022,3.6115,3.6051,3.606,3.6123,3.6141,3.6156,3.6159,3.5938,0,0,0,0,0,3.6201,3.622,3.618,3.6234,3.6231,3.6186,3.6193,3.6158,3.6146,3.6142,3.6118,3.6109,3.6121,3.613,3.6139,3.6205,3.6198,3.6239,3.6254,3.6267,3.6276,3.6309,3.6327,3.6135,3.6135,3.6135,0,0,3.6263,3.6241,3.6256,3.6255,3.6243,3.6264,3.6184,3.621,3.6225,3.6146,3.6183,3.6166,3.6151,3.6205,3.6228,3.6195,3.6327,3.6277,3.6287,3.6289,3.6319,3.6337,3.6353,3.6141,3.614,3.6139,0,0,3.6386,3.6371,3.6414,3.6404,3.6387,3.6356,3.6367,3.6338,3.6323,3.6359,3.63,3.6317,3.6339,3.6331,3.633,3.6449,3.6403,3.6453,3.6532,3.6565,3.658,3.6593,3.6636,3.6652,3.6462,3.6462,3.6462,0,3.6465,3.6494,3.6442,3.6472,3.6472,3.64,3.6444,3.6436,3.6424,3.6426,3.6389,3.6414,3.64,3.645,3.6479,3.6481,3.6491,3.6456,3.6582,3.6595,3.6606,3.6646,3.6662,3.6468,3.6467,3.6467,3.6466,0,3.6592,3.6613,3.665,3.6638,3.6643,3.668,3.6633,3.6644,3.6608,3.6582,3.662,3.6599,3.6602,3.6612,3.6577,3.6657,3.6637,3.6592,3.6527,3.6632,3.6668,3.6683,3.6477,3.6475,3.6473,3.6471,0,0,3.6783,3.674,3.6755,3.6748,3.6723,3.6738,3.6771,3.6773,3.6784,3.6777,3.6803,3.6823,3.678,3.6779,3.6743,3.6772,3.6867,3.6723,3.6722,3.6751,3.6953,3.6988,3.7006,3.6836,3.6839,3.6841,3.6955,0,3.6899,3.6952,3.6905,3.6967,3.6986,3.6917,3.6945,3.6933,3.6909,3.6921,3.6894,3.6909,3.6852,3.6851,3.6877,3.685,3.6907,3.6841,3.686,3.6862,3.6867,3.7025,3.7062,3.717,3.6968,3.6971,3.6973,0,3.7043,3.7041,3.7105,3.7075,3.7081,3.7107,3.7105,3.7117,3.7102,3.7082,3.708,3.7036,3.7065,3.7001,3.7042,3.6998,3.7003,3.6991,3.6994,3.6994,3.6924,3.703,3.7203,3.722,3.6994,3.6993,3.6991,0,3.7175,3.7189,3.7229,3.7225,3.7191,3.7211,3.7198,3.7179,3.7183,3.7181,3.7182,3.7185,3.7186,3.7188,3.7146,3.7103,3.7192,3.7124,3.7176,3.7178,3.7199,3.7198,3.7376,3.7202,3.7201,3.7201,3.7201,0,3.7311,3.7353,3.7287,3.7312,3.7356,3.7302,3.7347,3.7327,3.7311,3.733,3.7271,3.729,3.7232,3.7246,3.7212,3.7251,3.7252,3.7237,3.7228,3.7243,3.7245,3.7246,3.7237,3.7205,3.7204,3.7204,3.7203,0,3.7467,3.7425,3.7463,3.7427,3.7419,3.7453,3.7422,3.7443,3.7414,3.744,3.7442,3.7398,3.741,3.7367,3.7374,3.7351,3.7408,3.7386,3.7413,3.7406,3.7461,3.7457,3.7646,3.7668,3.748,3.7482,3.7483,0,3.7557,3.7587,3.7553,3.7561,3.7551,3.7565,3.7568,3.7515,3.7521,3.7505,3.7528,3.7536,3.7539,3.7563,3.7531,3.7535,3.7513,3.7579,3.7513,3.7527,3.7514,3.7513,3.7516,3.7593,3.7595,3.7597,3.7599,0,3.772,3.7697,3.7704,3.7703,3.7708,3.7705,3.7698,3.7708,3.7652,3.7661,3.7673,3.7675,3.768,3.7689,3.7686,3.7672,3.7627,3.7619,3.7632,3.7648,3.7662,3.7655,3.745,3.7616,3.7614,3.7613,3.7612,3.7611,3.7846,3.7869,3.7848,3.7857,3.7846,3.7841,3.7858,3.7831,3.784,3.7839,3.7807,3.7825,3.7808,3.7799,3.779,3.7804,3.7773,3.7791,3.7796,3.7801,3.7811,3.7659,3.7803,3.7802,3.7802,3.7801,3.7801,0,3.8006,3.7989,3.7998,3.7989,3.7996,3.7951,3.794,3.7949,3.7966,3.7953,3.7957,3.797,3.7977,3.7946,3.7949,3.7966,3.7945,3.7968,3.7967,3.7964,3.7838,3.7827,3.7985,3.7985,3.7985,3.7985,3.7985,3.7985,3.8091,3.8127,3.8102,3.8132,3.8115,3.8131,3.8129,3.8124,3.8113,3.813,3.8136,3.8114,3.8094,3.8095,3.8099,3.809,3.8094,3.8125,3.8109,3.7991,3.7973,3.7956,3.7946,3.8126,3.8127,3.8234,3.8235,3.8236]}]]